Change the Weather History Date:

Tuesday, July 16, 2013

  Actual Average Record
Temperature  
Mean Temperature 74 °F 75 °F  
Max Temperature 84 °F 87 °F 108 °F (1934)
Min Temperature 63 °F 63 °F 49 °F (1912)
Degree Days  
Heating Degree Days 0 0  
Month to date heating degree days 0  
Since 1 June heating degree days 35  
Since 1 July heating degree days 0  
Cooling Degree Days 9 10  
Month to date cooling degree days 156  
Year to date cooling degree days 382  
Since 1 June cooling degree days 335  
Growing Degree Days 23 (Base 50)    
Moisture  
Dew Point 62 °F    
Average Humidity 69    
Maximum Humidity 93    
Minimum Humidity 44    
Precipitation  
Precipitation 0.00 in - 1.77 in (1903)
Sea Level Pressure  
Sea Level Pressure 30.25 in    
Wind  
Wind Speed 12 mph (South)    
Max Wind Speed 20 mph    
Max Gust Speed 25 mph    
Visibility 10 miles    
Events      
T = Trace of Precipitation, MM = Missing Value Source: NWS Daily Summary

Daily Weather History Graph

Daily Weather History Graph

Search for Another Location

Airport or City:

Trip Planner

Search our weather history database for the weather conditions in past years. The results will help you decide how hot, cold, wet, or windy it might be!

Date:

Astronomy

Jul. 16, 2013 Rise Set
Actual Time 6:18 AM CDT 9:05 PM CDT
Civil Twilight 5:46 AM CDT 9:37 PM CDT
Nautical Twilight 5:05 AM CDT 10:17 PM CDT
Astronomical Twilight 4:19 AM CDT 11:03 PM CDT
Moon 2:47 PM CDT (7/16) 12:50 AM CDT (7/16)
Length of Visible Light 15h 50m
Length of Day
14h 46m
First Quarter, 56% of the Moon is Illuminated
Jul 16
First Quarter
Jul 22
Full
Jul 29
Last Quarter
Aug 6
New
Aug 14
First Quarter

Hourly Weather History & Observations

Time (CDT) Temp. Heat Index Dew Point Humidity Pressure Visibility Wind Dir Wind Speed Gust Speed Precip Events Conditions
12:15 AM 69.8 °F - 60.8 °F 73% 30.21 in 10.0 mi SE 8.1 mph - N/A   Scattered Clouds
12:35 AM 68.0 °F - 62.6 °F 83% 30.21 in 10.0 mi SE 8.1 mph - N/A   Scattered Clouds
12:55 AM 66.2 °F - 62.6 °F 88% 30.21 in 10.0 mi SSE 8.1 mph - N/A   Partly Cloudy
1:15 AM 66.2 °F - 62.6 °F 88% 30.21 in 10.0 mi SSE 6.9 mph - N/A   Clear
1:35 AM 66.2 °F - 60.8 °F 83% 30.21 in 10.0 mi SSE 6.9 mph - N/A   Clear
1:55 AM 66.2 °F - 60.8 °F 83% 30.20 in 10.0 mi South 9.2 mph - N/A   Clear
2:15 AM 66.2 °F - 60.8 °F 83% 30.20 in 10.0 mi SSE 9.2 mph - N/A   Clear
2:35 AM 64.4 °F - 60.8 °F 88% 30.21 in 10.0 mi South 9.2 mph - N/A   Clear
2:55 AM 64.4 °F - 60.8 °F 88% 30.21 in 10.0 mi South 10.4 mph - N/A   Clear
3:15 AM 64.4 °F - 60.8 °F 88% 30.21 in 10.0 mi South 9.2 mph - N/A   Clear
3:35 AM 64.4 °F - 60.8 °F 88% 30.21 in 10.0 mi South 9.2 mph - N/A   Clear
3:55 AM 64.4 °F - 60.8 °F 88% 30.21 in 10.0 mi South 9.2 mph - N/A   Clear
4:15 AM 64.4 °F - 60.8 °F 88% 30.21 in 10.0 mi South 9.2 mph - N/A   Clear
4:35 AM 62.6 °F - 60.8 °F 94% 30.20 in 10.0 mi South 8.1 mph - N/A   Clear
4:55 AM 62.6 °F - 60.8 °F 94% 30.21 in 10.0 mi South 5.8 mph - N/A   Clear
5:15 AM 62.6 °F - 60.8 °F 94% 30.21 in 10.0 mi South 6.9 mph - N/A   Clear
5:35 AM 62.6 °F - 60.8 °F 94% 30.21 in 10.0 mi South 6.9 mph - N/A   Clear
5:55 AM 62.6 °F - 60.8 °F 94% 30.21 in 10.0 mi South 8.1 mph - N/A   Clear
6:15 AM 62.6 °F - 60.8 °F 94% 30.22 in 10.0 mi SSW 6.9 mph - N/A   Clear
6:35 AM 62.6 °F - 60.8 °F 94% 30.23 in 9.0 mi South 6.9 mph - N/A   Clear
6:55 AM 62.6 °F - 60.8 °F 94% 30.23 in 8.0 mi South 6.9 mph - N/A   Clear
7:15 AM 62.6 °F - 60.8 °F 94% 30.24 in 9.0 mi South 8.1 mph - N/A   Clear
7:35 AM 64.4 °F - 60.8 °F 88% 30.24 in 10.0 mi SSW 8.1 mph - N/A   Clear
7:55 AM 64.4 °F - 62.6 °F 94% 30.25 in 10.0 mi SSW 9.2 mph - N/A   Clear
8:15 AM 66.2 °F - 62.6 °F 88% 30.25 in 10.0 mi South 12.7 mph - N/A   Clear
8:35 AM 68.0 °F - 62.6 °F 83% 30.26 in 10.0 mi South 10.4 mph - N/A   Partly Cloudy
8:55 AM 69.8 °F - 62.6 °F 78% 30.27 in 10.0 mi South 11.5 mph - N/A   Clear
9:15 AM 69.8 °F - 62.6 °F 78% 30.27 in 10.0 mi South 16.1 mph - N/A   Mostly Cloudy
9:35 AM 69.8 °F - 62.6 °F 78% 30.27 in 10.0 mi South 13.8 mph 18.4 mph N/A   Overcast
9:55 AM 69.8 °F - 62.6 °F 78% 30.28 in 10.0 mi South 11.5 mph - N/A   Overcast
10:15 AM 69.8 °F - 62.6 °F 78% 30.28 in 10.0 mi SSW 16.1 mph 19.6 mph N/A   Overcast
10:35 AM 71.6 °F - 62.6 °F 73% 30.27 in 10.0 mi South 17.3 mph 21.9 mph N/A   Overcast
10:55 AM 71.6 °F - 62.6 °F 73% 30.27 in 10.0 mi South 17.3 mph 20.7 mph N/A   Overcast
11:15 AM 73.4 °F - 62.6 °F 69% 30.28 in 10.0 mi SSW 16.1 mph - N/A   Overcast
11:35 AM 75.2 °F - 62.6 °F 65% 30.28 in 10.0 mi South 17.3 mph 21.9 mph N/A   Overcast
11:55 AM 75.2 °F - 64.4 °F 69% 30.28 in 10.0 mi SSW 16.1 mph - N/A   Mostly Cloudy
12:15 PM 75.2 °F - 62.6 °F 65% 30.28 in 10.0 mi SSW 18.4 mph - N/A   Overcast
12:35 PM 77.0 °F - 64.4 °F 65% 30.28 in 10.0 mi SSW 15.0 mph - N/A   Overcast
12:55 PM 78.8 °F - 64.4 °F 61% 30.27 in 10.0 mi SSW 13.8 mph - N/A   Overcast
1:15 PM 77.0 °F - 64.4 °F 65% 30.27 in 10.0 mi South 12.7 mph - N/A   Overcast
1:35 PM 78.8 °F - 64.4 °F 61% 30.27 in 10.0 mi SSW 20.7 mph - N/A   Overcast
1:55 PM 80.6 °F 82.3 °F 64.4 °F 58% 30.26 in 10.0 mi South 19.6 mph - N/A   Overcast
2:15 PM 80.6 °F 82.3 °F 64.4 °F 58% 30.26 in 10.0 mi South 16.1 mph 23.0 mph N/A   Overcast
2:35 PM 82.4 °F 83.9 °F 64.4 °F 54% 30.26 in 10.0 mi South 19.6 mph 26.5 mph N/A   Overcast
2:55 PM 84.2 °F 85.6 °F 64.4 °F 51% 30.26 in 10.0 mi South 17.3 mph 24.2 mph N/A   Mostly Cloudy
3:15 PM 82.4 °F 83.9 °F 64.4 °F 54% 30.25 in 10.0 mi South 17.3 mph 24.2 mph N/A   Mostly Cloudy
3:35 PM 84.2 °F 85.6 °F 64.4 °F 51% 30.25 in 10.0 mi SSW 13.8 mph 20.7 mph N/A   Mostly Cloudy
3:55 PM 84.2 °F 85.0 °F 62.6 °F 48% 30.24 in 10.0 mi South 19.6 mph 24.2 mph N/A   Scattered Clouds
4:15 PM 82.4 °F 83.4 °F 62.6 °F 51% 30.25 in 10.0 mi South 17.3 mph - N/A   Scattered Clouds
4:35 PM 84.2 °F 85.0 °F 62.6 °F 48% 30.24 in 10.0 mi South 19.6 mph 25.3 mph N/A   Scattered Clouds
4:55 PM 84.2 °F 85.0 °F 62.6 °F 48% 30.24 in 10.0 mi South 17.3 mph 25.3 mph N/A   Mostly Cloudy
5:15 PM 84.2 °F 85.0 °F 62.6 °F 48% 30.24 in 10.0 mi South 17.3 mph 23.0 mph N/A   Partly Cloudy
5:35 PM 84.2 °F 85.0 °F 62.6 °F 48% 30.24 in 10.0 mi South 16.1 mph - N/A   Clear
5:55 PM 84.2 °F 85.0 °F 62.6 °F 48% 30.24 in 10.0 mi South 16.1 mph 24.2 mph N/A   Partly Cloudy
6:15 PM 84.2 °F 85.0 °F 62.6 °F 48% 30.24 in 10.0 mi SSE 15.0 mph - N/A   Scattered Clouds
6:35 PM 84.2 °F 85.0 °F 62.6 °F 48% 30.23 in 10.0 mi South 16.1 mph 20.7 mph N/A   Partly Cloudy
6:55 PM 84.2 °F 84.4 °F 60.8 °F 45% 30.24 in 10.0 mi South 15.0 mph - N/A   Clear
7:15 PM 82.4 °F 83.4 °F 62.6 °F 51% 30.24 in 10.0 mi South 11.5 mph - N/A   Partly Cloudy
7:35 PM 82.4 °F 83.4 °F 62.6 °F 51% 30.24 in 10.0 mi South 10.4 mph - N/A   Partly Cloudy
7:55 PM 80.6 °F 81.8 °F 62.6 °F 54% 30.24 in 10.0 mi South 8.1 mph - N/A   Clear
8:15 PM 80.6 °F 81.8 °F 62.6 °F 54% 30.24 in 10.0 mi South 10.4 mph - N/A   Clear
8:35 PM 77.0 °F - 62.6 °F 61% 30.24 in 10.0 mi South 8.1 mph - N/A   Clear
8:55 PM 75.2 °F - 62.6 °F 65% 30.25 in 10.0 mi SSE 6.9 mph - N/A   Scattered Clouds
9:15 PM 75.2 °F - 62.6 °F 65% 30.25 in 10.0 mi SSE 6.9 mph - N/A   Mostly Cloudy
9:35 PM 73.4 °F - 62.6 °F 69% 30.26 in 10.0 mi SSE 8.1 mph - N/A   Overcast
9:55 PM 75.2 °F - 62.6 °F 65% 30.27 in 9.0 mi South 10.4 mph - N/A   Overcast
10:15 PM 75.2 °F - 62.6 °F 65% 30.28 in 10.0 mi South 11.5 mph - N/A   Overcast
10:35 PM 77.0 °F - 60.8 °F 57% 30.29 in 10.0 mi South 12.7 mph - N/A   Overcast
10:55 PM 75.2 °F - 62.6 °F 65% 30.29 in 10.0 mi South 8.1 mph - N/A   Overcast
11:15 PM 75.2 °F - 62.6 °F 65% 30.29 in 10.0 mi South 6.9 mph - N/A   Overcast
11:35 PM 73.4 °F - 62.6 °F 69% 30.30 in 10.0 mi SSW 8.1 mph - N/A   Overcast
11:55 PM 71.6 °F - 62.6 °F 73% 30.30 in 10.0 mi South 9.2 mph - N/A   Mostly Cloudy